Terminal Aerodrome Forecast
Issued by NWS

Home | Current Version | Previous Version | Graphics & Text | Print | Product List | Glossary On
Versions: 1 2 3 4 5 6 7 8 9 10 11 12 13
000
FTUS43 KBIS 291100
TAFJMS
TAF
KJMS 291135Z 2912/3012 34007KT P6SM VCFG SCT060
      TEMPO 2912/2914 2SM BR
     FM300100 33003KT P6SM FEW060=

USA.gov is the U.S. government's official web portal to all federal, state and local government web resources and services.